Retour au catalogue

HULIANWANG DIGUI-36

ActifCommunicationsPO
NORAD 64957·PAYLOAD·🇨🇳 China

Lancé Jul 27, 2025 depuis Taiyuan Satellite Launch Center

Loading…

Prochains Passages (prochaines 24 heures)

TLE

FraisSource: Space-Track

Époque: Sep 14, 2026, 22:09 UTC

1 64957U 25159B   26257.92338371 -.00000073  00000-0 -20444-3 0  9990
2 64957  86.4914 252.1771 0002236  89.9444 270.1946 13.24403427 55000

Suivez HULIANWANG DIGUI-36 en temps réel avec AllMySat

Download on the App Store